POPACS 2

Last updated on Thu Nov 21 2024 00:03:39 GMT+0000 (Coordinated Universal Time)

1 39269U 13055E 24325.28238024 .00035662 00000+0 77198-3 0 9994 2 39269 81.0006 68.9799 0519368 204.1861 153.4157 14.64820844578386
UTC large
Height (km)
Speed (km/s)
/
Latitude / Longitude
Inclination (degrees)
Orbital Period (minutes)
Azimuth
Elevation
Range (km)
Doppler Factor

Next 0 passes for location: London (51.5072 / 0.1276)

Sorry there are no passes over London.